SYRACUSE 4B

Last updated on Sun Apr 05 2026 00:02:54 GMT+0000 (Coordinated Universal Time)

1 57214U 23093B 26094.21072575 -.00000054 00000+0 00000+0 0 9994 2 57214 0.0182 184.9237 0000537 258.3435 178.6360 1.00273222 6221
UTC large
Height (km)
Speed (km/s)
/
Latitude / Longitude
Inclination (degrees)
Orbital Period (minutes)
Azimuth
Elevation
Range (km)
Doppler Factor

Next 0 passes for location: London (51.5072 / 0.1276)

Sorry there are no passes over London.